When you browse on this site, cookies collect data to enhance your experience and personalize the content and advertising you see.
Visit our Privacy Policy to learn more. By continuing to use the site, you agree to this use of cookies and data.
  • In Belgium
  • List of Countries
  • For 7 days
  • Water Temperature
  • Satellite Maps
  • Weather Map
  • Weather Widgets
  • user-avatar
    Login

    Hourly Weather Zabegalovka

    Today, 24 July, Wednesday

    Time Temperature Precipitation Wind Pressure Humidity
    00:00 +14°C° 0 mm 0 mps 744 mmHg 87%
    01:00 +15°C° 0 mm 1 mps 744 mmHg 88%
    02:00 +15°C° 0 mm 1 mps 744 mmHg 89%
    03:00 +15°C° 0 mm 1 mps 744 mmHg 89%
    04:00 +15°C° 0 mm 1 mps 744 mmHg 90%
    05:00 +15°C° 0 mm 1 mps 744 mmHg 90%
    06:00 +17°C° 0 mm 2 mps 744 mmHg 84%
    07:00 +18°C° 0 mm 2 mps 744 mmHg 78%
    08:00 +19°C° 0 mm 2 mps 744 mmHg 72%
    09:00 +20°C° 0.3 mm 2 mps 745 mmHg 73%
    10:00 +20°C° 0.3 mm 3 mps 745 mmHg 74%
    11:00 +21°C° 0.3 mm 3 mps 745 mmHg 74%
    12:00 +21°C° 0.4 mm 3 mps 745 mmHg 74%
    13:00 +21°C° 0.4 mm 3 mps 745 mmHg 74%
    14:00 +21°C° 0.4 mm 3 mps 745 mmHg 74%
    15:00 +21°C° 0.1 mm 3 mps 745 mmHg 74%
    16:00 +21°C° 0.1 mm 3 mps 745 mmHg 73%
    17:00 +21°C° 0.1 mm 3 mps 745 mmHg 72%
    18:00 +19°C° 0 mm 2 mps 745 mmHg 79%
    19:00 +18°C° 0 mm 2 mps 745 mmHg 86%
    20:00 +16°C° 0 mm 2 mps 745 mmHg 93%
    21:00 +16°C° 0.1 mm 2 mps 745 mmHg 95%
    22:00 +15°C° 0.1 mm 2 mps 745 mmHg 96%
    23:00 +15°C° 0.1 mm 2 mps 745 mmHg 98%

    Tomorrow, 25 July, Thursday

    Time Temperature Precipitation Wind Pressure Humidity
    00:00 +15°C° 0.2 mm 2 mps 745 mmHg 98%
    01:00 +15°C° 0.2 mm 2 mps 745 mmHg 98%
    02:00 +15°C° 0.2 mm 2 mps 745 mmHg 98%
    03:00 +15°C° 0.9 mm 2 mps 745 mmHg 98%
    04:00 +15°C° 0.9 mm 2 mps 745 mmHg 98%
    05:00 +15°C° 0.9 mm 2 mps 745 mmHg 99%
    06:00 +16°C° 0.9 mm 2 mps 745 mmHg 98%
    07:00 +16°C° 0.9 mm 2 mps 745 mmHg 98%
    08:00 +16°C° 0.9 mm 2 mps 745 mmHg 98%
    09:00 +17°C° 0.2 mm 2 mps 746 mmHg 95%
    10:00 +19°C° 0.2 mm 3 mps 746 mmHg 92%
    11:00 +20°C° 0.2 mm 3 mps 747 mmHg 89%
    12:00 +20°C° 0.7 mm 4 mps 747 mmHg 90%
    13:00 +20°C° 0.7 mm 4 mps 747 mmHg 91%
    14:00 +20°C° 0.7 mm 4 mps 747 mmHg 92%
    15:00 +20°C° 0.2 mm 4 mps 747 mmHg 91%
    16:00 +20°C° 0.2 mm 4 mps 747 mmHg 91%
    17:00 +19°C° 0.2 mm 3 mps 747 mmHg 90%
    18:00 +19°C° 0 mm 3 mps 748 mmHg 92%
    19:00 +18°C° 0 mm 3 mps 748 mmHg 93%
    20:00 +18°C° 0 mm 3 mps 748 mmHg 94%
    21:00 +17°C° 0 mm 3 mps 749 mmHg 94%
    22:00 +17°C° 0 mm 2 mps 749 mmHg 93%
    23:00 +17°C° 0 mm 2 mps 749 mmHg 93%

    Day after tomorrow, 26 July, Friday

    Time Temperature Precipitation Wind Pressure Humidity
    00:00 +16°C° 0 mm 2 mps 750 mmHg 91%
    01:00 +16°C° 0 mm 2 mps 750 mmHg 90%
    02:00 +16°C° 0 mm 2 mps 750 mmHg 89%
    03:00 +16°C° 0 mm 2 mps 750 mmHg 89%
    04:00 +17°C° 0 mm 2 mps 750 mmHg 89%
    05:00 +17°C° 0 mm 2 mps 751 mmHg 89%
    06:00 +19°C° 0 mm 3 mps 751 mmHg 85%
    07:00 +21°C° 0 mm 3 mps 751 mmHg 80%
    08:00 +24°C° 0 mm 3 mps 751 mmHg 76%
    09:00 +25°C° 0.1 mm 3 mps 751 mmHg 72%
    10:00 +26°C° 0.1 mm 3 mps 750 mmHg 67%
    11:00 +27°C° 0.1 mm 3 mps 750 mmHg 63%
    12:00 +27°C° 0.1 mm 4 mps 750 mmHg 61%
    13:00 +27°C° 0.1 mm 4 mps 750 mmHg 60%
    14:00 +28°C° 0.1 mm 4 mps 750 mmHg 58%
    15:00 +28°C° 0 mm 4 mps 750 mmHg 61%
    16:00 +27°C° 0 mm 3 mps 750 mmHg 63%
    17:00 +27°C° 0 mm 3 mps 749 mmHg 66%
    18:00 +25°C° 0 mm 3 mps 749 mmHg 71%
    19:00 +22°C° 0 mm 3 mps 749 mmHg 77%
    20:00 +21°C° 0 mm 2 mps 750 mmHg 82%
    21:00 +20°C° 0 mm 2 mps 749 mmHg 84%
    22:00 +19°C° 0 mm 2 mps 749 mmHg 86%
    23:00 +18°C° 0 mm 2 mps 749 mmHg 88%

    27 July, Saturday

    Time Temperature Precipitation Wind Pressure Humidity
    00:00 +18°C° 0 mm 2 mps 749 mmHg 89%
    01:00 +18°C° 0 mm 2 mps 749 mmHg 91%
    02:00 +17°C° 0 mm 2 mps 749 mmHg 92%
    03:00 +17°C° 0 mm 2 mps 749 mmHg 90%
    04:00 +18°C° 0 mm 2 mps 748 mmHg 88%
    05:00 +18°C° 0 mm 2 mps 748 mmHg 87%
    06:00 +19°C° 0 mm 2 mps 748 mmHg 83%
    07:00 +21°C° 0 mm 2 mps 748 mmHg 79%
    08:00 +23°C° 0 mm 2 mps 748 mmHg 75%
    09:00 +25°C° 0 mm 2 mps 748 mmHg 68%
    10:00 +26°C° 0 mm 3 mps 748 mmHg 61%
    11:00 +28°C° 0 mm 3 mps 747 mmHg 54%
    12:00 +28°C° 0 mm 3 mps 747 mmHg 54%
    13:00 +28°C° 0 mm 3 mps 746 mmHg 53%
    14:00 +29°C° 0 mm 3 mps 746 mmHg 52%
    15:00 +28°C° 0 mm 3 mps 745 mmHg 56%
    16:00 +28°C° 0 mm 2 mps 745 mmHg 60%
    17:00 +27°C° 0 mm 2 mps 745 mmHg 64%
    18:00 +25°C° 0.1 mm 3 mps 745 mmHg 71%
    19:00 +22°C° 0.1 mm 3 mps 745 mmHg 79%
    20:00 +20°C° 0.1 mm 4 mps 744 mmHg 87%
    21:00 +19°C° 0 mm 4 mps 745 mmHg 88%
    22:00 +18°C° 0 mm 4 mps 745 mmHg 90%
    23:00 +17°C° 0 mm 4 mps 745 mmHg 91%

    28 July, Sunday

    Time Temperature Precipitation Wind Pressure Humidity
    00:00 +15°C° 0 mm 4 mps 745 mmHg 87%
    01:00 +14°C° 0 mm 4 mps 745 mmHg 82%
    02:00 +13°C° 0 mm 4 mps 745 mmHg 78%
    03:00 +13°C° 0 mm 4 mps 745 mmHg 78%
    04:00 +12°C° 0 mm 4 mps 746 mmHg 78%
    05:00 +11°C° 0 mm 4 mps 746 mmHg 79%
    06:00 +11°C° 0 mm 4 mps 746 mmHg 75%
    07:00 +11°C° 0 mm 4 mps 746 mmHg 71%
    08:00 +11°C° 0 mm 4 mps 746 mmHg 68%
    09:00 +11°C° 0 mm 4 mps 746 mmHg 64%
    10:00 +12°C° 0 mm 4 mps 747 mmHg 59%
    11:00 +13°C° 0 mm 4 mps 747 mmHg 55%
    12:00 +13°C° 0 mm 4 mps 747 mmHg 55%
    13:00 +13°C° 0 mm 4 mps 746 mmHg 55%
    14:00 +13°C° 0 mm 4 mps 746 mmHg 54%
    15:00 +13°C° 0 mm 4 mps 746 mmHg 56%
    16:00 +12°C° 0 mm 4 mps 746 mmHg 59%
    17:00 +11°C° 0 mm 4 mps 746 mmHg 61%
    18:00 +11°C° 0 mm 3 mps 746 mmHg 61%
    19:00 +10°C° 0 mm 3 mps 746 mmHg 62%
    20:00 +10°C° 0 mm 2 mps 746 mmHg 63%
    21:00 +9°C° 0 mm 2 mps 746 mmHg 63%
    22:00 +9°C° 0 mm 2 mps 746 mmHg 64%
    23:00 +9°C° 0 mm 2 mps 746 mmHg 65%

    29 July, Monday

    Time Temperature Precipitation Wind Pressure Humidity
    00:00 +9°C° 0 mm 2 mps 746 mmHg 66%
    01:00 +8°C° 0 mm 3 mps 746 mmHg 67%
    02:00 +8°C° 0 mm 3 mps 746 mmHg 69%
    03:00 +8°C° 0 mm 3 mps 746 mmHg 70%
    04:00 +7°C° 0 mm 3 mps 746 mmHg 71%
    05:00 +7°C° 0 mm 3 mps 745 mmHg 72%
    06:00 +8°C° 0 mm 3 mps 745 mmHg 70%
    07:00 +8°C° 0 mm 3 mps 745 mmHg 68%
    08:00 +7°C° 0 mm 4 mps 745 mmHg 65%
    09:00 +8°C° 0 mm 4 mps 745 mmHg 64%
    10:00 +8°C° 0 mm 4 mps 745 mmHg 63%
    11:00 +8°C° 0 mm 4 mps 745 mmHg 62%
    12:00 +10°C° 0.1 mm 4 mps 744 mmHg 64%
    13:00 +9°C° 0.1 mm 5 mps 744 mmHg 66%
    14:00 +9°C° 0.1 mm 5 mps 744 mmHg 69%
    15:00 +9°C° 0.2 mm 5 mps 743 mmHg 72%
    16:00 +8°C° 0.2 mm 5 mps 743 mmHg 76%
    17:00 +8°C° 0.2 mm 4 mps 743 mmHg 80%
    18:00 +7°C° 0.2 mm 4 mps 743 mmHg 84%
    19:00 +7°C° 0.2 mm 4 mps 743 mmHg 87%
    20:00 +7°C° 0.2 mm 3 mps 743 mmHg 91%
    21:00 +5°C° 0 mm 3 mps 743 mmHg 92%
    22:00 +5°C° 0 mm 3 mps 743 mmHg 94%
    23:00 +4°C° 0 mm 3 mps 743 mmHg 95%
    Show more